[[[{"header":{"parameterUnit":"kt","parameterCategory":2,"dx":1,"dy":1,"la1":30.253999710083008,"la2":30.299108505249023,"lo1":-89.0895004272461,"lo2":-89.04439544677734,"nx":28,"ny":28,"refTime":"2022-10-25T21:00:00:Z","depth":0,"parameterNumber":1,"parameterNumberName":"U-component_of_WINDS"},"data":[-3.4082,-3.413,-3.4164,-3.4234,-3.4277,-3.4331,-3.4361,-3.4404,-3.4448,-3.4516,-3.4562,-3.4602,-3.466,-3.4723,-3.4775,-3.4792,-3.4811,-3.4802,-3.4823,-3.4834,-3.4838,-3.4842,-3.4833,-3.4805,-3.4805,-3.4808,-3.4807,-3.4807,-3.4083,-3.4126,-3.4173,-3.4243,-3.4284,-3.4314,-3.4372,-3.4404,-3.4452,-3.4506,-3.4554,-3.4617,-3.4673,-3.4736,-3.4795,-3.4818,-3.4836,-3.4831,-3.483,-3.4839,-3.4851,-3.4842,-3.4815,-3.4815,-3.4815,-3.4815,-3.4815,-3.4815,-3.4094,-3.4121,-3.4184,-3.4237,-3.4282,-3.4329,-3.4361,-3.4411,-3.4458,-3.4525,-3.4559,-3.4614,-3.4676,-3.4766,-3.4805,-3.4849,-3.4861,-3.4867,-3.4869,-3.487,-3.4865,-3.4856,-3.4861,-3.4861,-3.4861,-3.4861,-3.4862,0,-3.4113,-3.4141,-3.419,-3.4249,-3.429,-3.4339,-3.4391,-3.4412,-3.4485,-3.4521,-3.4577,-3.4616,-3.4692,-3.4749,-3.4813,-3.4854,-3.489,-3.4898,-3.4902,-3.4887,-3.4863,-3.4876,-3.4894,-3.4898,-3.4898,-3.4898,-3.4899,-3.4899,-3.4127,-3.4155,-3.424,-3.4269,-3.4307,-3.4355,-3.439,-3.4452,-3.4487,-3.4561,-3.4582,-3.4641,-3.4691,-3.4775,-3.4835,-3.4892,-3.491,-3.4907,-3.4919,-3.4902,-3.491,-3.4908,-3.4911,-3.4904,-3.4903,-3.4903,-3.4902,0,-3.4131,-3.419,-3.4247,-3.4329,-3.435,-3.4377,-3.4447,-3.4478,-3.4524,-3.4573,-3.4588,-3.4661,-3.4715,-3.4776,-3.4851,-3.4881,-3.4925,-3.4942,-3.4903,-3.491,-3.4913,-3.4912,-3.4915,-3.4919,-3.4948,-3.4948,-3.4947,0,-3.4166,-3.4202,-3.4289,-3.4318,-3.436,-3.4423,-3.4462,-3.4506,-3.4562,-3.4601,-3.4652,-3.4688,-3.476,-3.4805,-3.4849,-3.4896,-3.4911,-3.4936,-3.4948,-3.4932,-3.4929,-3.4952,-3.4953,-3.4973,-3.4973,-3.4973,-3.4973,0,-3.4166,-3.4256,-3.4305,-3.4335,-3.4428,-3.4449,-3.4489,-3.4552,-3.4587,-3.4643,-3.4666,-3.4726,-3.4758,-3.4803,-3.486,-3.4866,-3.4919,-3.4939,-3.4946,-3.4944,-3.4955,-3.4954,-3.4941,-3.4973,-3.4973,-3.4973,-3.4973,0,-3.4205,-3.426,-3.4322,-3.4401,-3.4422,-3.4454,-3.4518,-3.456,-3.4624,-3.4654,-3.4698,-3.4741,-3.4788,-3.4802,-3.4868,-3.4859,-3.4888,-3.4917,-3.4919,-3.4927,-3.4942,-3.4927,-3.4908,-3.4908,-3.4933,-3.4933,-3.4933,0,-3.4188,-3.4268,-3.4324,-3.4382,-3.4428,-3.4483,-3.452,-3.4576,-3.462,-3.4665,-3.4714,-3.4765,-3.4789,-3.4814,-3.4838,-3.4891,-3.4902,-3.4891,-3.4954,-3.4956,-3.4935,-3.4919,-3.4901,-3.4905,-3.493,-3.493,-3.493,0,-3.4184,-3.4298,-3.4305,-3.4342,-3.4427,-3.4466,-3.4509,-3.4574,-3.4601,-3.4658,-3.4696,-3.477,-3.4791,-3.4831,-3.4873,-3.4895,-3.4896,-3.4915,-3.4917,-3.4909,-3.4933,-3.4916,-3.4916,-3.4919,-3.4919,-3.492,-3.4928,0,-3.4227,-3.4276,-3.4297,-3.438,-3.442,-3.4461,-3.4528,-3.4561,-3.4597,-3.4644,-3.4701,-3.4764,-3.4831,-3.4848,-3.4884,-3.4915,-3.492,-3.4942,-3.4962,-3.495,-3.4955,-3.4956,-3.495,-3.4951,-3.4952,-3.4952,0,0,-3.4196,-3.4269,-3.4331,-3.4376,-3.4414,-3.4473,-3.451,-3.4554,-3.4641,-3.4666,-3.4677,-3.479,-3.4841,-3.4903,-3.4905,-3.4932,-3.4944,-3.4946,-3.4955,-3.4955,-3.4956,-3.4959,-3.496,-3.4954,-3.4954,-3.4954,-3.4955,0,-3.4227,-3.4279,-3.4316,-3.4364,-3.4438,-3.4487,-3.4495,-3.4579,-3.4611,-3.4668,-3.4716,-3.4759,-3.4848,-3.4896,-3.4932,-3.494,-3.4974,-3.4955,-3.4936,-3.4961,-3.496,-3.496,-3.4962,-3.4962,-3.4957,-3.4957,-3.4957,0,-3.4234,-3.4297,-3.4322,-3.4413,-3.4462,-3.4509,-3.4546,-3.4594,-3.4629,-3.4692,-3.4748,-3.4792,-3.4862,-3.4913,-3.4938,-3.4949,-3.4997,-3.4995,-3.4991,-3.4996,-3.5023,-3.5022,-3.502,-3.5037,-3.5037,-3.5037,0,0,-3.4252,-3.4299,-3.4387,-3.4425,-3.4452,-3.4526,-3.4558,-3.4598,-3.466,-3.4685,-3.4744,-3.4802,-3.4855,-3.4888,-3.4941,-3.4987,-3.5007,-3.5002,-3.4998,-3.4995,-3.4997,-3.5023,-3.5022,-3.5037,-3.5037,-3.5037,0,0,-3.426,-3.4364,-3.439,-3.4443,-3.45,-3.459,-3.461,-3.4644,-3.47,-3.4703,-3.4773,-3.4792,-3.484,-3.4882,-3.4874,-3.495,-3.4968,-3.4971,-3.4921,-3.4917,-3.4913,-3.4902,-3.4922,0,0,0,0,0,-3.4328,-3.4351,-3.4373,-3.4393,-3.4509,-3.4577,-3.4592,-3.4651,-3.4662,-3.4677,-3.4731,-3.4766,-3.4892,-3.4887,-3.4904,-3.4913,-3.5037,-3.5037,-3.5037,-3.4983,-3.4978,-3.4974,0,0,0,0,0,0,-3.4336,-3.4359,-3.4373,-3.4462,-3.4489,-3.4577,-3.4609,-3.4626,-3.4662,-3.4668,-3.4755,-3.4769,-3.482,-3.4882,-3.4897,-3.4904,-3.4917,-3.5037,-3.5037,-3.5037,-3.4981,-3.4977,-3.4974,0,0,0,0,0,-3.4342,-3.4361,-3.4532,-3.4463,-3.4486,-3.4569,-3.4609,-3.4623,-3.4652,-3.4737,-3.4753,-3.4694,-3.4819,-3.4836,-3.4891,-3.4895,-3.4907,-3.4912,-3.5037,-3.5037,-3.5037,-3.4979,0,0,0,0,0,0,-3.4347,-3.4375,-3.4538,-3.4547,-3.4459,-3.4566,-3.4585,-3.462,-3.472,-3.4736,-3.4679,-3.4683,-3.4818,-3.4831,-3.4844,-3.4889,-3.4899,-3.4904,-3.4908,-3.5037,-3.5037,-3.5037,0,0,0,0,0,0,-3.4365,-3.4382,-3.4543,-3.4534,-3.4543,-3.4562,-3.4579,-3.4635,-3.4721,-3.4657,-3.4663,-3.468,-3.4799,-3.4828,-3.4838,-3.4923,-3.4892,-3.4898,-3.4901,-3.4904,-3.5037,-3.5037,0,0,0,0,0,0,-3.4373,-3.4388,-3.4533,-3.4539,-3.4547,-3.4655,-3.4612,-3.4728,-3.4714,-3.4652,-3.4714,-3.4714,-3.4795,-3.4807,-3.4834,-3.4914,-3.4921,-3.4893,-3.4896,-3.4899,-3.49,0,0,0,0,0,0,0,-3.438,-3.4268,-3.4483,-3.4543,-3.455,-3.4632,-3.4635,-3.4637,-3.4714,-3.4714,-3.4714,-3.4714,-3.4863,-3.4868,-3.4874,-3.4907,0,0,-3.4892,-3.4895,0,0,0,0,0,0,0,0,-3.4263,-3.4266,-3.4483,-3.4485,-3.4487,-3.4633,-3.4635,-3.4637,-3.4714,-3.4714,-3.4714,-3.4714,-3.4864,-3.4869,-3.4873,0,0,0,0,0,0,0,0,0,0,0,0,0,0,0,-3.4484,-3.4485,0,-3.4633,-3.4634,-3.4636,-3.4714,-3.4714,-3.4714,-3.4714,-3.4865,-3.4869,-3.4873,0,0,0,0,0,0,0,0,0,0,0,0,0,0,0,0,0,0,0,0,0,0,0,0,0,0,0,0,0,0,0,0,0,0,0,0,0,0,0,0,0,0,0,0,0,0,0,0,0,0,0,0,0,0,0,0,0,0,0,0,0,0,0,0,0,0,0,0,0]}],[{"header":{"parameterUnit":"kt","parameterCategory":2,"dx":1,"dy":1,"la1":30.253999710083008,"la2":30.299108505249023,"lo1":-89.0895004272461,"lo2":-89.04439544677734,"nx":28,"ny":28,"refTime":"2022-10-25T21:00:00:Z","depth":0,"parameterNumber":2,"parameterNumberName":"V-component_of_WINDS"},"data":[12.9489,12.9641,12.9715,12.9921,13.0021,13.0174,13.0251,13.0357,13.0459,13.0647,13.0766,13.085,13.0976,13.1133,13.1263,13.1296,13.1348,13.1353,13.1391,13.1309,13.1303,13.1296,13.1268,13.1362,13.1362,13.1467,13.1468,13.1469,12.9434,12.9535,12.9664,12.9838,12.995,12.9992,13.0131,13.022,13.0353,13.0478,13.0599,13.0767,13.0906,13.1032,13.1177,13.1247,13.1272,13.1282,13.1278,13.1298,13.1213,13.1182,13.1259,13.1259,13.1259,13.1259,13.1259,13.1259,12.9352,12.9439,12.9587,12.9728,12.9834,12.9948,13.0043,13.0145,13.0269,13.0431,13.0488,13.0637,13.0772,13.0977,13.1061,13.1178,13.1179,13.1209,13.1217,13.1224,13.1225,13.1073,13.1204,13.1204,13.1204,13.1204,13.1204,0,12.9315,12.9371,12.9497,12.9647,12.9752,12.9873,12.9994,13.0054,13.0186,13.0281,13.0426,13.0519,13.0702,13.0843,13.0991,13.1072,13.1119,13.1128,13.115,13.1129,13.1093,13.1119,13.0981,13.1123,13.1123,13.1123,13.1122,13.1122,12.9242,12.9332,12.9518,12.9598,12.9682,12.9806,12.9894,13.0004,13.0092,13.0255,13.0323,13.0465,13.0585,13.0797,13.0908,13.1042,13.1066,13.1115,13.1086,13.1063,13.1072,13.1067,13.1079,13.1118,13.1118,13.1119,13.1119,0,12.9195,12.9309,12.9471,12.9643,12.969,12.9777,12.9924,13.0012,13.0098,13.0231,13.0267,13.0401,13.0537,13.0641,13.0812,13.0862,13.1009,13.1026,13.0967,13.0977,13.1034,13.1029,13.1192,13.1222,13.1121,13.1121,13.1122,0,12.9177,12.9289,12.9454,12.9541,12.9671,12.9778,12.9902,12.9988,13.0106,13.021,13.0281,13.0377,13.0494,13.0604,13.0677,13.0814,13.0844,13.0891,13.091,13.0887,13.0882,13.0934,13.0931,13.0942,13.0941,13.094,13.0939,0,12.9093,12.9309,12.9452,12.9519,12.9711,12.9774,12.9855,12.9986,13.0069,13.0191,13.0247,13.0379,13.0453,13.0554,13.0647,13.0624,13.0815,13.0802,13.0863,13.0861,13.09,13.0897,13.1016,13.0938,13.0938,13.0938,13.0937,0,12.9096,12.9223,12.941,12.9573,12.9625,12.9715,12.9858,12.9959,13.009,13.0144,13.024,13.0298,13.0423,13.0405,13.0579,13.0525,13.0592,13.0648,13.0654,13.0672,13.065,13.0708,13.0807,13.0824,13.0689,13.0687,13.0686,0,12.8972,12.9189,12.9283,12.9456,12.9571,12.9648,12.9749,12.9862,12.9942,13.0049,13.0135,13.0253,13.0261,13.0312,13.0384,13.0477,13.0547,13.0469,13.0621,13.0625,13.059,13.0683,13.0674,13.0774,13.066,13.0663,13.0665,0,12.8889,12.9121,12.9145,12.9228,12.9396,12.9489,12.9605,12.9748,12.9815,12.993,13.0031,13.0195,13.0211,13.0291,13.035,13.042,13.0502,13.0425,13.0429,13.0439,13.0654,13.0646,13.0663,13.0526,13.053,13.0532,13.0645,0,12.8877,12.8997,12.9065,12.9238,12.9326,12.9437,12.955,12.9628,12.968,12.976,12.9906,13.0019,13.0157,13.02,13.0247,13.0372,13.0368,13.0379,13.0369,13.0427,13.0467,13.0483,13.0301,13.0302,13.0302,13.0302,0,0,12.8731,12.8905,12.9002,12.9119,12.92,12.9275,12.9384,12.947,12.9639,12.9693,12.9689,12.9937,13.0027,13.0191,13.0218,13.0271,13.0304,13.0277,13.0397,13.0408,13.0417,13.0458,13.0473,13.0302,13.0303,13.0303,13.0303,0,12.8751,12.8848,12.8955,12.905,12.9194,12.9275,12.93,12.9453,12.9509,12.965,12.9706,12.9805,12.9995,13.0087,13.0158,13.0261,13.0296,13.0293,13.0316,13.0396,13.0406,13.0415,13.0457,13.047,13.0303,13.0303,13.0303,0,12.8692,12.8808,12.8871,12.9057,12.9149,12.9261,12.9282,12.9396,12.948,12.9548,12.9686,12.9762,12.989,13.0028,13.0093,13.009,13.0283,13.0237,13.0239,13.0248,13.0331,13.0342,13.0353,13.0217,13.0216,13.0215,0,0,12.8693,12.8804,12.8959,12.9069,12.9124,12.9244,12.9312,12.937,12.9487,12.9532,12.9631,12.974,12.9853,12.9924,13.0034,13.0169,13.0205,13.0223,13.0227,13.023,13.024,13.0324,13.0335,13.0213,13.0213,13.0213,0,0,12.8692,12.8878,12.891,12.9052,12.9164,12.932,12.9382,12.9423,12.9534,12.9533,12.9631,12.9664,12.9794,12.9864,12.9817,13.0033,13.002,13.0034,12.9982,12.9989,12.9993,12.9974,12.9848,0,0,0,0,0,12.8769,12.8856,12.8884,12.8924,12.9154,12.9306,12.9335,12.9421,12.9414,12.9462,12.9551,12.9582,12.986,12.982,12.9856,12.9908,13.0178,13.0184,13.019,13.0156,13.0162,13.0167,0,0,0,0,0,0,12.8786,12.8835,12.8882,12.904,12.9093,12.9303,12.931,12.9336,12.9411,12.9416,12.9564,12.9587,12.9659,12.9807,12.9839,12.9886,12.9837,13.0181,13.0186,13.019,13.0158,13.0163,13.0167,0,0,0,0,0,12.88,12.8839,12.9187,12.904,12.9085,12.9221,12.9307,12.9329,12.9388,12.9525,12.9549,12.9447,12.9658,12.969,12.9826,12.987,12.9816,12.9828,13.0184,13.0188,13.0192,13.016,0,0,0,0,0,0,12.881,12.8859,12.9198,12.9215,12.9013,12.9211,12.9245,12.9322,12.9494,12.9519,12.9411,12.9413,12.9659,12.9684,12.9708,12.986,12.9799,12.9811,12.9818,13.0187,13.019,13.0193,0,0,0,0,0,0,12.8838,12.8873,12.9207,12.9169,12.9183,12.9201,12.9232,12.9357,12.9495,12.9371,12.9378,12.941,12.962,12.9679,12.9698,12.989,12.9786,12.9797,12.9805,12.981,13.019,13.0192,0,0,0,0,0,0,12.8854,12.8884,12.9165,12.9175,12.9187,12.9384,12.9313,12.9542,12.9467,12.9361,12.9462,12.946,12.9615,12.9636,12.9691,12.9875,12.9886,12.9786,12.9794,12.9799,12.9803,0,0,0,0,0,0,0,12.8867,12.8648,12.9098,12.9181,12.9191,12.9373,12.9377,12.9382,12.9467,12.9465,12.9463,12.9461,12.9723,12.9735,12.9747,12.9862,0,0,12.9785,12.9791,0,0,0,0,0,0,0,0,12.8638,12.8646,12.9098,12.9102,12.9105,12.9374,12.9377,12.9381,12.9466,12.9465,12.9463,12.9462,12.9726,12.9736,12.9746,0,0,0,0,0,0,0,0,0,0,0,0,0,0,0,12.9099,12.9102,0,12.9374,12.9377,12.938,12.9466,12.9465,12.9464,12.9462,12.9729,12.9737,12.9745,0,0,0,0,0,0,0,0,0,0,0,0,0,0,0,0,0,0,0,0,0,0,0,0,0,0,0,0,0,0,0,0,0,0,0,0,0,0,0,0,0,0,0,0,0,0,0,0,0,0,0,0,0,0,0,0,0,0,0,0,0,0,0,0,0,0,0,0,0]}]]]